COSMOS 2529 (757) (43687 NORAD) Tracking and Keplerian Element Data

This shows tracking and keplerian element data for the satellite.

Feedback or suggestion? Click here.




ElementValue
Catalog43687
NameCOSMOS 2529 (757)
Epoch Orbit427
Epoch Day143.61524631
Epoch Year2019
RAAN280.5968
Inclination64.7233
Eccentricity0.0008334
Argument of Perigee271.8793
Mean Anonmoly316.5852
Mean Motion2.13101966
Decay Rate-1.3E-07
L11 43687U 18086A 19143.61524631 -.00000013 00000-0 00000+0 0 9991
L22 43687 64.7233 280.5968 0008334 271.8793 316.5852 2.13101966 4270

Live tracking and technical data element details for COSMOS 2529 (757) (NORAD 43687). COSMOS 2529 (757) can be tracked NOW for your location showing map with azimuth and elevation plus other details from your city location.

Track the satellite on the map from your city or location and see movement details for azimuth, elevation, latitude, longitude, range, height, and movement on the map or in text.







IsCatalogInMostPopularTable: catalog: 43687, numindb: 114
Update: records affected: 1



GetName: 43687 COSMOS 2529 (757)

Hit Count: updated at: Fri, 24 May 2019 21:14:31 GMT